Terminal Aerodrome Forecast
Issued by NWS

Home | Current Version | Previous Version | Text Only | Print | Product List | Glossary On
Versions: 1 2 3 4 5 6 7 8 9 10 11 12 13 14 15 16 17 18 19 20 21 22 23 24 25 26
000
FTUS42 KJAX 292338
TAFVQQ
TAF
KVQQ 292338Z 3000/3024 18008KT P6SM SCT050 SCT250
     FM300300 24006KT P6SM SCT250
     FM300800 00000KT 3SM BR SCT004
     FM301300 30006KT P6SM SCT025 SCT250
     FM301900 33008KT P6SM VCTS SCT040CB BKN080=

USA.gov is the U.S. government's official web portal to all federal, state and local government web resources and services.